This demonstration page uses our WeatherBlox Daily Observations layout. Learn more.

Left ArrowRight Arrow

Hourly Observations for October 22, 2021

Temp ( °F °C ) Dew Point ( °F °C ) Humidity (%) Winds ( mph kmh ) Pressure ( in mb ) Visibility ( mi km ) Precip ( " mm )
12:53 am 00:53 Cloudy with Light Rain 65 18.3 59 15 81 81 S 24 39 29.80 1009 10 16 0.01 0.25
1:53 am 01:53 Cloudy with Heavy Rain 63 17.2 59 15 87 87 SSE 25 41 29.79 1009 4 6 0.18 4.57
2:17 am 02:17 Cloudy with Light Rain 62 16.7 59 15 90 90 SSE 28 44 29.78 1009 7 11 0.06 1.52
2:34 am 02:34 Cloudy with Light Rain 62 16.7 59 15 90 90 SSE 26 43 29.78 1009 10 16 0.06 1.52
2:53 am 02:53 Cloudy with Light Rain 62 16.7 59 15 90 90 SSE 26 43 29.78 1008 10 16 0.06 1.52
3:50 am 03:50 Cloudy with Rain 63 17 59 15 88 88 S 21 33 29.78 1009 5 8 0.01 0.25
3:53 am 03:53 Cloudy with Rain 61 16.1 59 15 93 93 SSW 17 28 29.78 1009 4 6 0.02 0.51
4:16 am 04:16 Cloudy with Rain 61 16.1 59 15 93 93 S 17 28 29.80 1009 4 6 0.09 2.29
4:43 am 04:43 Cloudy with Heavy Rain 59 15 55 12.8 87 87 SW 14 22 29.82 1010 2 3 0.24 6.10
4:53 am 04:53 Cloudy with Heavy Rain 58 14.4 54 12.2 87 87 SSW 7 11 29.80 1009 3 4 0.32 8.13
5:00 am 05:00 Cloudy with Rain 58 14.4 54 12.2 87 87 SW 8 13 29.81 1009 4 6 0.03 0.76
5:53 am 05:53 Cloudy with Rain 56 13.3 53 11.7 90 90 SSE 9 15 29.80 1009 8 13 0.17 4.32
6:53 am 06:53 Cloudy 56 13.3 53 11.7 90 90 N N/A 29.84 1011 10 16 0.03 0.76
7:53 am 07:53 Sunny 56 13.3 54 12.2 93 93 SE 3 6 29.85 1011 10 16 0.00 0.00
8:53 am 08:53 Sunny 58 14.4 53 11.7 84 84 N N/A 29.90 1013 10 16 N/A
9:53 am 09:53 Sunny 61 16.1 53 11.7 75 75 S 6 9 29.91 1013 10 16 N/A
10:53 am 10:53 Sunny 64 17.8 47 8.3 54 54 VRB 6 9 29.92 1013 10 16 N/A
11:53 am 11:53 Sunny 66 18.9 41 5 40 40 VRB 6 9 29.92 1013 10 16 N/A
12:53 pm 12:53 Cloudy 68 20 42 5.6 39 39 SSW 14 22 29.91 1013 10 16 N/A
1:53 pm 13:53 Cloudy 64 17.8 50 10 60 60 SSE 17 28 29.90 1013 10 16 N/A
2:53 pm 14:53 Cloudy 64 17.8 51 10.6 63 63 S 13 20 29.91 1013 10 16 N/A
3:53 pm 15:53 Cloudy 64 17.8 50 10 60 60 S 12 19 29.91 1013 10 16 N/A
4:53 pm 16:53 Cloudy 63 17.2 50 10 63 63 SSE 8 13 29.90 1012 10 16 N/A
5:17 pm 17:17 Cloudy with Nearby Thunderstorms 63 17.2 51 10.6 65 65 S 6 9 29.90 1013 10 16 N/A
5:32 pm 17:32 Cloudy 63 17.2 51 10.6 65 65 S 6 9 29.90 1013 10 16 N/A
5:53 pm 17:53 Cloudy with Light Rain 57 13.9 52 11.1 83 83 W 12 19 29.90 1013 5 8 0.02 0.51
6:53 pm 18:53 Cloudy 56 13.3 53 11.7 90 90 NW 5 7 29.90 1012 10 16 0.05 1.27
7:53 pm 19:53 Cloudy 56 13.3 54 12.2 93 93 undefined N/A 29.90 1013 10 16 N/A
8:53 pm 20:53 Cloudy 57 13.9 54 12.2 90 90 NNE 5 7 29.90 1013 10 16 N/A
9:53 pm 21:53 Cloudy with Light Rain 57 13.9 53 11.7 87 87 N 6 9 29.90 1013 10 16 0.00 0.00
10:53 pm 22:53 Cloudy 55 12.8 51 10.6 87 87 N N/A 29.90 1013 10 16 0.00 0.00
11:53 pm 23:53 Cloudy 55 12.8 51 10.6 87 87 ESE 6 9 29.89 1012 10 16 0.00 0.00

Powered by AerisWeather